| time (UTC) | temp C | wind direction | speed KPH | gust KPH | rain 1hr cm | rain 24hr cm | rain mn cm | humidity % | barometer mb |
| 20260506013110 | 22 | 253 | 8.0 | 19.3 | 0.00 | 0.00 | 0.00 | 48 | 1014.8 |
| 20260506010036 | 23 | 220 | 9.7 | 25.7 | 0.00 | 0.00 | 0.00 | 47 | 1014.6 |
| 20260506004537 | 23 | 214 | 9.7 | 27.4 | 0.00 | 0.00 | 0.00 | 47 | 1014.6 |
| 20260506001534 | 24 | 213 | 9.7 | 29.0 | 0.00 | 0.00 | 0.00 | 46 | 1014.6 |
| 20260506000037 | 25 | 231 | 8.0 | 17.7 | 0.00 | 0.00 | 0.00 | 46 | 1014.7 |
| 20260505234535 | 25 | 226 | 8.0 | 22.5 | 0.00 | 0.00 | 0.00 | 46 | 1014.8 |
| 20260505233037 | 24 | 247 | 6.4 | 16.1 | 0.00 | 0.00 | 0.00 | 47 | 1014.9 |
| 20260505231530 | 24 | 254 | 8.0 | 20.9 | 0.00 | 0.00 | 0.00 | 47 | 1014.8 |
| 20260505230038 | 24 | 229 | 6.4 | 16.1 | 0.00 | 0.00 | 0.00 | 48 | 1014.9 |
| 20260505223035 | 23 | 218 | 9.7 | 20.9 | 0.00 | 0.00 | 0.00 | 49 | 1015.1 |
| 20260505221537 | 23 | 227 | 8.0 | 20.9 | 0.00 | 0.00 | 0.00 | 49 | 1015.2 |
| 20260505220152 | 23 | 217 | 9.7 | 20.9 | 0.00 | 0.00 | 0.00 | 50 | 1015.4 |
| 20260505214537 | 23 | 212 | 9.7 | 20.9 | 0.00 | 0.00 | 0.00 | 50 | 1015.4 |
| 20260505213034 | 22 | 215 | 9.7 | 19.3 | 0.00 | 0.00 | 0.00 | 51 | 1015.5 |
| 20260505211536 | 22 | 218 | 9.7 | 25.7 | 0.00 | 0.00 | 0.00 | 51 | 1015.7 |
| 20260505210036 | 22 | 224 | 8.0 | 19.3 | 0.00 | 0.00 | 0.00 | 51 | 1015.8 |
| 20260505204533 | 22 | 217 | 9.7 | 19.3 | 0.00 | 0.00 | 0.00 | 50 | 1015.9 |
| 20260505203038 | 22 | 215 | 9.7 | 20.9 | 0.00 | 0.00 | 0.00 | 50 | 1016.0 |
| 20260505201532 | 22 | 210 | 8.0 | 22.5 | 0.00 | 0.00 | 0.00 | 51 | 1016.0 |
| 20260505200036 | 22 | 216 | 9.7 | 20.9 | 0.00 | 0.00 | 0.00 | 51 | 1016.1 |
| 20260505194609 | 21 | 222 | 9.7 | 24.1 | 0.00 | 0.00 | 0.00 | 52 | 1016.2 |
| 20260505193032 | 21 | 213 | 9.7 | 20.9 | 0.00 | 0.00 | 0.00 | 52 | 1016.3 |
| 20260505191605 | 21 | 220 | 9.7 | 22.5 | 0.00 | 0.00 | 0.00 | 52 | 1016.3 |
| 20260505190036 | 21 | 221 | 9.7 | 22.5 | 0.00 | 0.00 | 0.00 | 52 | 1016.5 |
| 20260505184534 | 21 | 214 | 9.7 | 22.5 | 0.00 | 0.00 | 0.00 | 53 | 1016.6 |
| 20260505183032 | 20 | 213 | 8.0 | 24.1 | 0.00 | 0.00 | 0.00 | 54 | 1016.6 |
| 20260505181530 | 20 | 224 | 9.7 | 19.3 | 0.00 | 0.00 | 0.00 | 55 | 1016.6 |
| 20260505180030 | 19 | 216 | 9.7 | 20.9 | 0.00 | 0.00 | 0.00 | 56 | 1016.6 |
| 20260505174611 | 18 | 218 | 9.7 | 24.1 | 0.00 | 0.00 | 0.00 | 56 | 1016.6 |
| 20260505173032 | 18 | 215 | 11.3 | 22.5 | 0.00 | 0.00 | 0.00 | 57 | 1016.6 |
| 20260505164535 | 17 | 212 | 9.7 | 22.5 | 0.00 | 0.00 | 0.00 | 60 | 1016.6 |
| 20260505163036 | 17 | 216 | 9.7 | 22.5 | 0.00 | 0.00 | 0.00 | 61 | 1016.5 |
| 20260505161536 | 17 | 216 | 9.7 | 24.1 | 0.00 | 0.00 | 0.00 | 61 | 1016.6 |
| 20260505150143 | 15 | 209 | 6.4 | 19.3 | 0.00 | 0.00 | 0.00 | 70 | 1016.5 |
| 20260505124536 | 13 | 200 | 6.4 | 11.3 | 0.00 | 0.00 | 0.00 | 78 | 1015.9 |
| 20260505123037 | 13 | 203 | 6.4 | 14.5 | 0.00 | 0.00 | 0.00 | 78 | 1015.9 |
| 20260505121535 | 13 | 208 | 6.4 | 17.7 | 0.00 | 0.00 | 0.00 | 77 | 1015.9 |
| 20260505114534 | 13 | 200 | 8.0 | 20.9 | 0.00 | 0.00 | 0.00 | 77 | 1015.8 |
| 20260505113035 | 13 | 207 | 8.0 | 24.1 | 0.00 | 0.00 | 0.00 | 76 | 1015.6 |
| 20260505101536 | 14 | 218 | 6.4 | 20.9 | 0.00 | 0.00 | 0.00 | 75 | 1015.2 |
| 20260505100046 | 15 | 204 | 6.4 | 19.3 | 0.00 | 0.00 | 0.00 | 75 | 1015.1 |
| 20260505094536 | 15 | 205 | 6.4 | 16.1 | 0.00 | 0.00 | 0.00 | 75 | 1015.0 |
| 20260505091536 | 15 | 206 | 8.0 | 19.3 | 0.00 | 0.00 | 0.00 | 74 | 1014.9 |
| 20260505083031 | 16 | 211 | 6.4 | 16.1 | 0.00 | 0.00 | 0.00 | 72 | 1014.6 |
| 20260505081536 | 16 | 212 | 6.4 | 16.1 | 0.00 | 0.00 | 0.00 | 72 | 1014.5 |
| 20260505080037 | 16 | 209 | 6.4 | 17.7 | 0.00 | 0.00 | 0.00 | 72 | 1014.6 |
| 20260505074533 | 16 | 200 | 1.6 | 12.9 | 0.00 | 0.00 | 0.00 | 71 | 1014.5 |
| 20260505071537 | 16 | 204 | 3.2 | 17.7 | 0.00 | 0.00 | 0.00 | 71 | 1014.3 |
| 20260505070036 | 16 | 201 | 4.8 | 17.7 | 0.00 | 0.00 | 0.00 | 71 | 1014.3 |
| 20260505061535 | 16 | 245 | 3.2 | 12.9 | 0.00 | 0.00 | 0.00 | 69 | 1014.2 |
| 20260505060029 | 16 | 322 | 0.0 | 9.7 | 0.00 | 0.00 | 0.00 | 68 | 1014.3 |
| 20260505054541 | 16 | 199 | 1.6 | 11.3 | 0.00 | 0.00 | 0.00 | 67 | 1014.2 |
| 20260505053037 | 17 | 143 | 1.6 | 11.3 | 0.00 | 0.00 | 0.00 | 65 | 1014.1 |
| 20260505051538 | 17 | 187 | 3.2 | 9.7 | 0.00 | 0.00 | 0.00 | 63 | 1014.1 |
| 20260505033035 | 18 | 238 | 1.6 | 9.7 | 0.00 | 0.00 | 0.00 | 51 | 1012.8 |
| 20260505031534 | 19 | 268 | 1.6 | 8.0 | 0.00 | 0.00 | 0.00 | 49 | 1012.6 |
| 20260505030145 | 20 | 276 | 0.0 | 12.9 | 0.00 | 0.00 | 0.00 | 47 | 1012.4 |
| 20260505024532 | 21 | 262 | 1.6 | 11.3 | 0.00 | 0.00 | 0.00 | 46 | 1012.2 |
| 20260505023044 | 22 | 237 | 3.2 | 12.9 | 0.00 | 0.00 | 0.00 | 44 | 1012.0 |
| 20260505020036 | 23 | 239 | 4.8 | 19.3 | 0.00 | 0.00 | 0.00 | 42 | 1011.8 |
| 20260505014609 | 23 | 226 | 3.2 | 12.9 | 0.00 | 0.00 | 0.00 | 41 | 1011.8 |